Location: Boitzum
(52.1496°N, 9.6943°E)
Time: 22:32:26
(UTC+00:00)

Cosmos 2227 Rocket - Pass Details

Date: 13 January 2026
Orbit: 837 x 845 km, 71.0° (Epoch: 7 February)

Event Time Altitude Azimuth Distance (km) Brightness Sun altitude
Exits shadow 06:41:51 - 327° (NNW) 3,066 4.6 -6.5°
Reaches altitude 10° 06:44:43 10° 349° (N) 2,470 4.3 -6.1°
Maximum altitude 06:47:06 13° 14° (NNE) 2,288 4.3 -5.7°
Drops below altitude 10° 06:49:30 10° 39° (NE) 2,471 4.8 -5.4°
Sets 06:53:37 0° 68° (ENE) 3,406 6.0 -4.9°
